Weather History for Kuantan, Malaysia

Change the Weather History Date:

Sunday, October 28, 2012

  Actual Average Record
Temperature  
Mean Temperature 82 °F -  
Max Temperature 90 °F 87 °F - ()
Min Temperature 73 °F 72 °F - ()
Cooling Degree Days 16    
Growing Degree Days 32 (Base 50)    
Moisture  
Dew Point 77 °F    
Average Humidity 89    
Maximum Humidity 100    
Minimum Humidity 73    
Precipitation  
Precipitation 0.00 in 0.44 in - ()
Sea Level Pressure  
Sea Level Pressure 29.77 in    
Wind  
Wind Speed 3 mph ()    
Max Wind Speed 8 mph    
Max Gust Speed -    
Visibility 6.0 miles    
Events      
T = Trace of Precipitation, MM = Missing Value Source: Averaged Metar Reports

Daily Weather History Graph

Daily Weather History Graph

Search for Another Location

Airport:

Trip Planner

Search our weather history database for the weather conditions in past years. The results will help you decide how hot, cold, wet, or windy it might be!

Date:

Astronomy

Oct. 28, 2012 Rise Set
Actual Time 6:51 AM MYT 6:50 PM MYT
Civil Twilight 6:29 AM MYT 7:12 PM MYT
Nautical Twilight 6:05 AM MYT 7:36 PM MYT
Astronomical Twilight 5:40 AM MYT 8:01 PM MYT
Moon 5:43 PM MYT 5:26 AM MYT
Length of Visible Light 12h 42m
Length of Day
11h 59m
Waxing Gibbous, 97% of the Moon is Illuminated
Oct 28
Waxing Gibbous
Oct 30
Full
Nov 7
Last Quarter
Nov 14
New
Nov 20
First Quarter

Hourly Weather History & Observations

Time (MYT) Temp. Heat Index Dew Point Humidity Pressure Visibility Wind Dir Wind Speed Gust Speed Precip Events Conditions
12:00 AM 77.0 °F - 75.2 °F 94% 29.80 in 5.0 mi North 2.3 mph - N/A   Mostly Cloudy
1:00 AM 77.0 °F - 75.2 °F 94% 29.80 in 5.0 mi NNE 2.3 mph - N/A   Mostly Cloudy
2:00 AM 76 °F - 75 °F 94% 29.78 in 5 mi North 1.2 mph - -   Mist
2:00 AM 75.2 °F - 75.2 °F 100% 29.77 in 5.0 mi North 1.2 mph - N/A   Mostly Cloudy
3:00 AM 75.2 °F - 73.4 °F 94% 29.74 in 4.3 mi North 2.3 mph - N/A   Mostly Cloudy
4:00 AM 75.2 °F - 73.4 °F 94% 29.74 in 4.3 mi North 2.3 mph - N/A   Mostly Cloudy
5:00 AM 74 °F - 73 °F 97% 29.76 in 4 mi NNE 2.3 mph - -   Mist
5:00 AM 73.4 °F - 73.4 °F 100% 29.74 in 4.3 mi NNE 2.3 mph - N/A   Mostly Cloudy
6:00 AM 73.4 °F - 73.4 °F 100% 29.77 in 4.3 mi North 3.5 mph - N/A   Mostly Cloudy
7:00 AM 73.4 °F - 73.4 °F 100% 29.77 in 6.2 mi North 3.5 mph - N/A   Mostly Cloudy
8:00 AM 76 °F - 74 °F 93% 29.81 in 7 mi North 3.5 mph - -   Mist
8:00 AM 75.2 °F - 75.2 °F 100% 29.80 in 6.2 mi North 3.5 mph - N/A   Mostly Cloudy
9:00 AM 80.6 °F 87.1 °F 77.0 °F 89% 29.83 in 6.2 mi NNW 5.8 mph - N/A   Mostly Cloudy
10:00 AM 84.2 °F 96.1 °F 78.8 °F 84% 29.83 in 6.2 mi North 5.8 mph - N/A   Mostly Cloudy
11:00 AM 85 °F - 80 °F 79% 29.84 in 9 mi NNE 3.5 mph - -   Haze
11:00 AM 86.0 °F 99.3 °F 78.8 °F 79% 29.83 in 6.2 mi NNE 3.5 mph - N/A   Mostly Cloudy
12:00 PM 87.8 °F 104.9 °F 80.6 °F 79% 29.80 in 6.2 mi ENE 4.6 mph - N/A   Mostly Cloudy
1:00 PM 89.6 °F 111.1 °F 82.4 °F 79% 29.77 in 6.2 mi East 4.6 mph - N/A   Mostly Cloudy
2:00 PM 89 °F - 82 °F 73% 29.76 in 11 mi ENE 4.6 mph - -   Haze
2:00 PM 89.6 °F 111.1 °F 82.4 °F 79% 29.74 in 6.2 mi ENE 4.6 mph - N/A   Mostly Cloudy
3:00 PM 87.8 °F 108.2 °F 82.4 °F 84% 29.74 in 6.2 mi ENE 8.1 mph - N/A   Mostly Cloudy
4:00 PM 87.8 °F 104.9 °F 80.6 °F 79% 29.71 in 6.2 mi ENE 5.8 mph - N/A   Mostly Cloudy
5:00 PM 86 °F - 79 °F 75% 29.72 in 11 mi NE 4.6 mph - -   Haze
5:00 PM 86.0 °F 99.3 °F 78.8 °F 79% 29.71 in 6.2 mi NE 4.6 mph - N/A   Mostly Cloudy
6:00 PM 84.2 °F 96.1 °F 78.8 °F 84% 29.74 in 6.2 mi NE 4.6 mph - N/A   Mostly Cloudy
7:00 PM 82.4 °F 90.9 °F 77.0 °F 84% 29.74 in 6.2 mi NE 3.5 mph - N/A   Mostly Cloudy
8:00 PM 78 °F - 76 °F 91% 29.78 in 7 mi NNW 3.5 mph - -   Haze
8:00 PM 78.8 °F - 75.2 °F 89% 29.77 in 6.2 mi NNW 3.5 mph - N/A   Mostly Cloudy
9:00 PM 77.0 °F - 75.2 °F 94% 29.77 in 6.2 mi NW 2.3 mph - N/A   Mostly Cloudy
10:00 PM 77.0 °F - 75.2 °F 94% 29.80 in 6.2 mi North 2.3 mph - N/A   Mostly Cloudy
11:00 PM 77 °F - 75 °F 90% 29.80 in 4 mi North 3.5 mph - -   Haze
11:00 PM 77.0 °F - 75.2 °F 94% 29.80 in 3.7 mi North 3.5 mph - N/A   Mostly Cloudy